TimeCDT,TemperatureF,Dew PointF,Humidity,Sea Level PressureIn,VisibilityMPH,Wind Direction,Wind SpeedMPH,Gust SpeedMPH,PrecipitationIn,Events,Conditions,WindDirDegrees,DateUTC
12:52 AM,48.9,33.1,54,30.08,10.0,WNW,9.2,-,N/A,,Clear,290,2012-10-05 05:52:00
1:52 AM,46.9,32.0,56,30.10,10.0,WNW,10.4,-,N/A,,Clear,290,2012-10-05 06:52:00
2:52 AM,44.6,32.0,61,30.11,10.0,West,9.2,-,N/A,,Clear,270,2012-10-05 07:52:00
3:52 AM,44.1,30.0,58,30.12,10.0,West,10.4,-,N/A,,Clear,260,2012-10-05 08:52:00
4:52 AM,42.1,30.0,62,30.12,10.0,West,8.1,-,N/A,,Partly Cloudy,260,2012-10-05 09:52:00
5:52 AM,41.0,30.0,65,30.11,10.0,West,8.1,-,N/A,,Partly Cloudy,260,2012-10-05 10:52:00
6:52 AM,41.0,28.9,62,30.11,10.0,West,9.2,-,N/A,,Scattered Clouds,270,2012-10-05 11:52:00
7:52 AM,41.0,28.9,62,30.11,10.0,West,11.5,17.3,N/A,,Partly Cloudy,270,2012-10-05 12:52:00
8:52 AM,43.0,30.0,60,30.11,10.0,West,12.7,-,N/A,,Partly Cloudy,280,2012-10-05 13:52:00
9:52 AM,44.6,30.2,57,30.09,10.0,West,17.3,20.7,N/A,,Mostly Cloudy,260,2012-10-05 14:52:00
10:52 AM,48.0,30.9,52,30.10,10.0,West,13.8,-,N/A,,Mostly Cloudy,260,2012-10-05 15:52:00
11:52 AM,50.0,28.4,43,30.07,10.0,West,12.7,18.4,N/A,,Mostly Cloudy,280,2012-10-05 16:52:00
12:52 PM,51.1,28.9,43,30.07,10.0,WSW,12.7,-,N/A,,Mostly Cloudy,250,2012-10-05 17:52:00
1:52 PM,51.8,28.4,41,30.03,10.0,WSW,16.1,-,N/A,,Overcast,250,2012-10-05 18:52:00
2:52 PM,51.1,28.0,41,30.04,10.0,West,11.5,-,N/A,,Overcast,260,2012-10-05 19:52:00
3:52 PM,51.1,25.0,36,30.03,10.0,West,15.0,24.2,N/A,,Overcast,260,2012-10-05 20:52:00
4:52 PM,50.0,25.0,38,30.03,10.0,West,15.0,21.9,N/A,,Overcast,260,2012-10-05 21:52:00
5:52 PM,48.9,24.1,38,30.05,10.0,West,13.8,-,N/A,,Overcast,270,2012-10-05 22:52:00
6:52 PM,46.9,24.1,41,30.04,10.0,West,17.3,23.0,N/A,,Mostly Cloudy,280,2012-10-05 23:52:00
7:52 PM,46.0,23.0,40,30.04,10.0,West,11.5,-,N/A,,Mostly Cloudy,270,2012-10-06 00:52:00
8:52 PM,45.0,24.1,44,30.04,10.0,West,15.0,-,N/A,,Mostly Cloudy,260,2012-10-06 01:52:00
9:52 PM,44.1,24.1,45,30.04,10.0,West,10.4,18.4,N/A,,Partly Cloudy,260,2012-10-06 02:52:00
10:52 PM,43.0,24.1,47,30.04,10.0,West,10.4,-,N/A,,Partly Cloudy,270,2012-10-06 03:52:00
11:52 PM,41.0,25.0,53,30.03,10.0,West,9.2,-,N/A,,Partly Cloudy,270,2012-10-06 04:52:00